Location: North Runcton
(52.7000°N, 0.4333°E)
Time: 05:32:44
(UTC+00:00)

Cosmos 1908 - Pass Details

Date: 19 May 2025
Orbit: 404 x 413 km, 82.5° (Epoch: 18 June)

Event Time Altitude Azimuth Distance (km) Brightness Sun altitude
Rises 23:01:42 0° 349° (N) 2,386 8.4 -16.4°
Reaches altitude 10° 23:03:45 10° 350° (N) 1,513 6.9 -16.5°
Maximum altitude 23:07:03 84° 78° (ENE) 427 2.7 -16.6°
Enters shadow 23:07:54 47° 163° (SSE) 567 2.9 -16.6°
